[[{"header":{"parameterUnit":"m.s-1","parameterCategory":1,"la1":30.2991,"la2":30.254,"lo1":-89.0895,"lo2":-89.0444,"dy":0.0017,"dx":0.0017,"nx":28,"ny":28,"refTime":"2026-02-02T03:00:00:Z","depth":0,"parameterNumber":2,"parameterNumberName":"U-component_of_WINDS"},"data":[0,0,0,0,0,0,0,0,0,0,0,0,0,0,0,0,0,0,0,0,0,0,0,0,0,0,0,0,0,0,0,0,0,0,0,0,0,0,0,0,0,0,0,0,0,0,0,0,0,0,0,0,0,0,0,0,0,0,2.8689,2.869,0,2.8791,2.8792,2.8793,2.8708,2.8704,2.8701,2.8697,2.8803,2.8808,2.8815,0,0,0,0,0,0,0,0,0,0,0,0,0,2.8421,2.8427,2.8689,2.869,2.8692,2.8791,2.8792,2.8794,2.8708,2.8704,2.87,2.8696,2.88,2.8808,2.8815,0,0,0,0,0,0,0,0,0,0,0,0,0,2.8532,2.8429,2.8689,2.8661,2.8659,2.8791,2.8792,2.8794,2.8709,2.8704,2.8698,2.8693,2.8798,2.8807,2.8816,2.898,0,0,2.8844,2.8848,0,0,0,0,0,0,0,0,2.8526,2.8542,2.8664,2.8663,2.8662,2.8731,2.8736,2.8856,2.8711,2.869,2.8697,2.8691,2.8783,2.8793,2.8824,2.8985,2.899,2.8845,2.8851,2.8855,2.8857,0,0,0,0,0,0,0,2.8518,2.8537,2.8729,2.8666,2.8664,2.8644,2.8653,2.8759,2.8766,2.8692,2.8686,2.8699,2.8782,2.8816,2.8826,2.8991,2.8845,2.8853,2.8859,2.8862,2.9292,2.9298,0,0,0,0,0,0,2.8513,2.8531,2.8726,2.8732,2.8579,2.8653,2.8664,2.8714,2.8764,2.8767,2.8703,2.8695,2.8802,2.8815,2.8829,2.9025,2.8854,2.8863,2.8868,2.9286,2.9293,2.93,0,0,0,0,0,0,2.8508,2.8532,2.8722,2.863,2.8653,2.8663,2.8721,2.8719,2.8753,2.8773,2.8774,2.8737,2.8799,2.8816,2.8943,2.9028,2.8867,2.8876,2.9279,2.9288,2.9297,2.9418,0,0,0,0,0,0,2.8501,2.853,2.8592,2.8632,2.8658,2.8835,2.8726,2.8725,2.8769,2.8758,2.8805,2.8807,2.8796,2.893,2.8952,2.9037,2.8883,2.9272,2.9283,2.9294,2.9406,2.943,2.945,0,0,0,0,0,2.8491,2.8623,2.8596,2.862,2.8736,2.8839,2.8854,2.8838,2.8776,2.8839,2.8852,2.8806,2.9015,2.8944,2.8968,2.9057,2.9266,2.928,2.9293,2.9397,2.9425,2.9449,0,0,0,0,0,0,2.8593,2.8627,2.8598,2.8746,2.8791,2.8825,2.8904,2.8869,2.8932,2.892,2.8897,2.8908,2.9042,2.9062,2.8983,2.9219,2.913,2.9149,2.9201,2.9228,2.9249,2.9242,2.889,0,0,0,0,0,2.8633,2.8713,2.8739,2.8867,2.8891,2.8894,2.8938,2.8922,2.8967,2.8985,2.9007,2.9053,2.9129,2.9179,2.925,2.9408,2.9418,2.9482,2.9503,2.9521,2.9538,2.9623,2.9652,2.9343,2.9343,2.9343,0,0,2.8715,2.8744,2.8797,2.8888,2.8921,2.9005,2.891,2.9003,2.9066,2.8999,2.9121,2.9139,2.9188,2.9332,2.9396,2.9352,2.9625,2.9538,2.9552,2.9559,2.964,2.9669,2.9695,2.9352,2.9351,2.9349,0,0,2.8909,2.8939,2.9049,2.9084,2.9134,2.9135,2.9161,2.9201,2.921,2.9331,2.9283,2.9357,2.9488,2.9526,2.9562,2.977,2.973,2.9794,2.9907,2.9991,3.0015,3.0037,3.0111,3.0138,2.981,2.981,2.9811,0,2.9006,2.9131,2.9111,2.9208,2.925,2.9193,2.9305,2.9339,2.941,2.944,2.939,2.9554,2.9583,2.9734,2.9785,2.9816,2.9846,2.9789,3.0013,3.0035,3.0054,3.0125,3.0154,2.9818,2.9817,2.9816,2.9816,0,2.9248,2.9335,2.9418,2.9488,2.9539,2.9643,2.9639,2.9693,2.9672,2.9679,2.9803,2.9836,2.9913,2.9947,2.9928,3.0096,3.0068,3.0016,2.9927,3.0092,3.0158,3.0185,2.9829,2.9826,2.9824,2.9822,0,0,2.951,2.9566,2.9597,2.9628,2.9679,2.9746,2.9848,2.9922,2.997,3.002,3.0105,3.0217,3.017,3.0211,3.0195,3.0268,3.0432,3.0207,3.0208,3.0249,3.062,3.0659,3.0691,3.0405,3.041,3.0414,3.0616,0,2.9707,2.9883,2.9867,3.0034,3.0115,3.0062,3.015,3.0191,3.0199,3.0269,3.0278,3.0359,3.0289,3.0314,3.0384,3.0397,3.0506,3.0382,3.0484,3.0488,3.0474,3.0725,3.0767,3.0956,3.0641,3.0646,3.0649,0,2.996,3.0019,3.0194,3.0233,3.0266,3.0346,3.0413,3.048,3.0525,3.0526,3.0573,3.0544,3.0647,3.0555,3.0696,3.0612,3.0652,3.0665,3.0672,3.0682,3.0579,3.0742,3.1015,3.1044,3.069,3.0686,3.0683,0,3.0134,3.0258,3.0378,3.0406,3.0454,3.0512,3.0534,3.0574,3.062,3.0679,3.0708,3.0778,3.0817,3.0872,3.0864,3.0797,3.1007,3.0915,3.1011,3.1012,3.1059,3.1056,3.1343,3.1084,3.1084,3.1083,3.1083,0,3.0356,3.0466,3.0457,3.0532,3.0653,3.0634,3.0754,3.077,3.0806,3.0882,3.0841,3.0914,3.0898,3.097,3.0964,3.1082,3.11,3.1104,3.1101,3.1108,3.1108,3.1135,3.1122,3.1091,3.1089,3.1088,3.1086,0,3.0572,3.0571,3.0699,3.0733,3.0745,3.0833,3.0862,3.0932,3.0937,3.1035,3.1057,3.1064,3.1148,3.1144,3.1239,3.1235,3.138,3.1362,3.1365,3.1361,3.1459,3.145,3.1774,3.1815,3.1529,3.1532,3.1534,0,3.0714,3.0797,3.084,3.0888,3.0915,3.0993,3.1039,3.1023,3.1074,3.1131,3.1195,3.1274,3.1337,3.1473,3.1487,3.1559,3.1543,3.1651,3.1553,3.1558,3.1545,3.154,3.1549,3.1671,3.1674,3.1676,3.1679,0,3.0967,3.0962,3.103,3.1099,3.1156,3.1209,3.1258,3.13,3.1289,3.1347,3.1432,3.148,3.1577,3.1656,3.1725,3.1748,3.1713,3.1709,3.1735,3.1744,3.1743,3.1745,3.1418,3.1702,3.17,3.1698,3.1697,3.1696,3.115,3.1222,3.1263,3.1341,3.1376,3.1422,3.149,3.1503,3.1573,3.165,3.1636,3.1731,3.1774,3.1863,3.1893,3.1967,3.1928,3.1966,3.1976,3.1986,3.1997,3.173,3.1979,3.1978,3.1978,3.1977,3.1977,0,3.1401,3.1425,3.1497,3.1566,3.1627,3.1587,3.1639,3.1693,3.1777,3.182,3.1882,3.1979,3.2056,3.2076,3.215,3.2206,3.2191,3.2226,3.2222,3.2228,3.2027,3.1997,3.2236,3.2236,3.2236,3.2236,3.2236,3.2236,3.1539,3.1658,3.1658,3.1793,3.1816,3.1908,3.1942,3.1984,3.2018,3.2129,3.2192,3.2204,3.2238,3.2314,3.2383,3.2387,3.2416,3.2458,3.2456,3.2268,3.2242,3.2217,3.2189,3.2464,3.2465,3.265,3.2652,3.2653]},{"header":{"parameterUnit":"m.s-1","parameterCategory":1,"la1":30.2991,"la2":30.254,"lo1":-89.0895,"lo2":-89.0444,"dy":0.0017,"dx":0.0017,"nx":28,"ny":28,"refTime":"2026-02-02T03:00:00:Z","depth":0,"parameterNumber":3,"parameterNumberName":"V-component_of_WINDS"},"data":[0,0,0,0,0,0,0,0,0,0,0,0,0,0,0,0,0,0,0,0,0,0,0,0,0,0,0,0,0,0,0,0,0,0,0,0,0,0,0,0,0,0,0,0,0,0,0,0,0,0,0,0,0,0,0,0,0,0,-2.0219,-2.022,0,-2.0321,-2.0322,-2.0323,-2.0339,-2.0338,-2.0337,-2.0336,-2.0441,-2.0445,-2.0448,0,0,0,0,0,0,0,0,0,0,0,0,0,-2.004,-2.0043,-2.0219,-2.022,-2.0221,-2.032,-2.0322,-2.0323,-2.0339,-2.0338,-2.0337,-2.0336,-2.044,-2.0444,-2.0449,0,0,0,0,0,0,0,0,0,0,0,0,0,-2.0127,-2.0044,-2.0219,-2.0241,-2.0244,-2.032,-2.0322,-2.0324,-2.0339,-2.0338,-2.0336,-2.0335,-2.0439,-2.0444,-2.0449,-2.0511,0,0,-2.0466,-2.0468,0,0,0,0,0,0,0,0,-2.0122,-2.0134,-2.0236,-2.024,-2.0243,-2.0316,-2.0297,-2.0386,-2.0339,-2.0303,-2.0336,-2.0334,-2.0401,-2.0409,-2.0431,-2.0515,-2.052,-2.0467,-2.047,-2.0472,-2.0474,0,0,0,0,0,0,0,-2.0116,-2.013,-2.0259,-2.0238,-2.0242,-2.0247,-2.0258,-2.0314,-2.0358,-2.0306,-2.0307,-2.0319,-2.0402,-2.0426,-2.0434,-2.0522,-2.0466,-2.0471,-2.0475,-2.0477,-2.0662,-2.0664,0,0,0,0,0,0,-2.0106,-2.0124,-2.0256,-2.0262,-2.0178,-2.0251,-2.0263,-2.0294,-2.0358,-2.0366,-2.032,-2.032,-2.0417,-2.0427,-2.0438,-2.0514,-2.0472,-2.0477,-2.048,-2.0661,-2.0663,-2.0665,0,0,0,0,0,0,-2.0102,-2.0118,-2.0252,-2.0194,-2.0211,-2.0256,-2.029,-2.0296,-2.032,-2.0368,-2.0376,-2.0336,-2.0417,-2.043,-2.0492,-2.0518,-2.048,-2.0485,-2.0659,-2.0661,-2.0664,-2.0666,0,0,0,0,0,0,-2.0097,-2.0116,-2.0139,-2.0194,-2.0214,-2.0304,-2.0291,-2.0299,-2.0329,-2.0329,-2.0386,-2.0394,-2.0417,-2.0484,-2.0498,-2.0524,-2.0489,-2.0657,-2.066,-2.0663,-2.0664,-2.0669,-2.0672,0,0,0,0,0,-2.009,-2.0136,-2.014,-2.0156,-2.0244,-2.0306,-2.0317,-2.0342,-2.0331,-2.0355,-2.0387,-2.0392,-2.0513,-2.049,-2.0506,-2.0535,-2.0655,-2.0659,-2.0663,-2.0662,-2.0668,-2.0672,0,0,0,0,0,0,-2.0082,-2.0143,-2.0149,-2.0213,-2.0254,-2.0308,-2.0339,-2.0347,-2.0392,-2.039,-2.042,-2.0433,-2.0494,-2.0521,-2.0495,-2.0598,-2.0583,-2.059,-2.0578,-2.0583,-2.0587,-2.0579,-2.0494,0,0,0,0,0,-2.0088,-2.0132,-2.0184,-2.0236,-2.0256,-2.0294,-2.0322,-2.0338,-2.0381,-2.0399,-2.0435,-2.0477,-2.0525,-2.0556,-2.0603,-2.0669,-2.0682,-2.0696,-2.07,-2.0704,-2.0709,-2.0747,-2.0754,-2.0677,-2.0677,-2.0677,0,0,-2.01,-2.0139,-2.0165,-2.0235,-2.0268,-2.0314,-2.0308,-2.0357,-2.0392,-2.0406,-2.0467,-2.0496,-2.0545,-2.061,-2.064,-2.0634,-2.0733,-2.0708,-2.071,-2.0714,-2.0751,-2.0759,-2.0765,-2.0679,-2.0679,-2.0678,0,0,-2.0146,-2.0179,-2.0226,-2.0261,-2.0312,-2.0337,-2.0348,-2.0402,-2.0421,-2.0483,-2.0495,-2.0537,-2.0619,-2.0654,-2.0683,-2.0744,-2.075,-2.0758,-2.0779,-2.0816,-2.0822,-2.0827,-2.0849,-2.0857,-2.0764,-2.0764,-2.0764,0,-2.0154,-2.0223,-2.025,-2.0298,-2.0329,-2.0345,-2.0393,-2.0425,-2.0489,-2.051,-2.0503,-2.0606,-2.0641,-2.0715,-2.073,-2.0752,-2.0767,-2.0751,-2.0819,-2.0825,-2.083,-2.0851,-2.0859,-2.0764,-2.0764,-2.0764,-2.0764,0,-2.0231,-2.028,-2.0312,-2.0373,-2.0407,-2.0456,-2.049,-2.0522,-2.0536,-2.0562,-2.0626,-2.0669,-2.0724,-2.0743,-2.0757,-2.082,-2.0814,-2.0812,-2.0798,-2.0838,-2.0858,-2.0866,-2.0765,-2.0765,-2.0765,-2.0765,0,0,-2.0273,-2.0349,-2.036,-2.0389,-2.0447,-2.0485,-2.0535,-2.059,-2.0616,-2.0661,-2.0703,-2.0773,-2.0772,-2.0805,-2.0823,-2.0855,-2.0901,-2.085,-2.0851,-2.0858,-2.0973,-2.0974,-2.0982,-2.0907,-2.0908,-2.091,-2.0969,0,-2.0325,-2.0413,-2.0439,-2.0513,-2.0558,-2.0575,-2.0619,-2.066,-2.0687,-2.073,-2.076,-2.0808,-2.0803,-2.0823,-2.0856,-2.0889,-2.0925,-2.0885,-2.0947,-2.0949,-2.0933,-2.0993,-2.0994,-2.1047,-2.0977,-2.0979,-2.098,0,-2.0396,-2.0442,-2.052,-2.0574,-2.0594,-2.0633,-2.0685,-2.0726,-2.0774,-2.0791,-2.0828,-2.0844,-2.0898,-2.0882,-2.0957,-2.0929,-2.0956,-2.0977,-2.0979,-2.0985,-2.0966,-2.1,-2.1065,-2.1073,-2.0992,-2.0991,-2.0991,0,-2.0418,-2.0499,-2.0557,-2.0581,-2.0645,-2.0672,-2.07,-2.0746,-2.0778,-2.0825,-2.0846,-2.0898,-2.0927,-2.0968,-2.0998,-2.0983,-2.107,-2.1056,-2.1086,-2.1086,-2.1103,-2.1101,-2.1172,-2.1122,-2.1122,-2.1121,-2.1121,0,-2.0473,-2.052,-2.0568,-2.0603,-2.0657,-2.0688,-2.0741,-2.077,-2.0812,-2.0854,-2.0872,-2.0912,-2.095,-2.0994,-2.1019,-2.1077,-2.109,-2.1106,-2.1112,-2.1104,-2.1102,-2.1122,-2.1118,-2.1124,-2.1123,-2.1123,-2.1122,0,-2.0505,-2.0539,-2.0603,-2.0659,-2.0675,-2.0712,-2.076,-2.0796,-2.0824,-2.0877,-2.0892,-2.0936,-2.099,-2.1024,-2.1093,-2.111,-2.1174,-2.1179,-2.1157,-2.116,-2.1188,-2.1184,-2.1273,-2.1287,-2.1228,-2.1228,-2.1229,0,-2.0537,-2.0574,-2.0634,-2.0664,-2.0692,-2.0739,-2.0772,-2.0804,-2.0838,-2.0896,-2.0925,-2.098,-2.1025,-2.1111,-2.115,-2.1203,-2.1209,-2.1236,-2.1217,-2.1208,-2.1209,-2.1206,-2.121,-2.1239,-2.1239,-2.124,-2.124,0,-2.0591,-2.0606,-2.0652,-2.0704,-2.0742,-2.0785,-2.0828,-2.0851,-2.0891,-2.0928,-2.0983,-2.1018,-2.1089,-2.1144,-2.1201,-2.1231,-2.1243,-2.1246,-2.1256,-2.1248,-2.1234,-2.1242,-2.1165,-2.1244,-2.1243,-2.1243,-2.1243,-2.1243,-2.0624,-2.0658,-2.0706,-2.0757,-2.0792,-2.0832,-2.0869,-2.0902,-2.0948,-2.1008,-2.1025,-2.1082,-2.1131,-2.1209,-2.124,-2.1286,-2.1283,-2.1297,-2.1301,-2.1303,-2.1304,-2.1227,-2.1297,-2.1297,-2.1297,-2.1297,-2.1297,0,-2.0678,-2.071,-2.0756,-2.0816,-2.0856,-2.0864,-2.0912,-2.0946,-2.0996,-2.104,-2.1085,-2.1149,-2.1203,-2.1247,-2.1302,-2.1331,-2.1338,-2.1345,-2.1343,-2.135,-2.1303,-2.1289,-2.1338,-2.1338,-2.1338,-2.1338,-2.1338,-2.1338,-2.071,-2.0768,-2.079,-2.0866,-2.0899,-2.0955,-2.0982,-2.1019,-2.1055,-2.1125,-2.117,-2.1198,-2.1243,-2.1302,-2.1352,-2.1364,-2.1383,-2.1389,-2.1401,-2.1357,-2.1353,-2.1348,-2.1335,-2.1393,-2.1393,-2.1444,-2.1444,-2.1445]}]]